Caldwell, NJ

9:40 PM EDT on October 22, 2017 (GMT -0400)
Essex County

Weather History for KCDW - February, 2012

Change the Weather History Date:

Tuesday, February 28, 2012

  Actual Average Record
Temperature  
Mean Temperature 42 °F -  
Max Temperature 48 °F 44 °F 65 °F (1971)
Min Temperature 35 °F 22 °F 5 °F (1963)
Degree Days  
Heating Degree Days 23    
Moisture  
Dew Point 19 °F    
Average Humidity 41    
Maximum Humidity 57    
Minimum Humidity 31    
Precipitation  
Precipitation 0.00 in - - ()
Sea Level Pressure  
Sea Level Pressure 30.36 in    
Wind  
Wind Speed 9 mph (NW)    
Max Wind Speed 15 mph    
Max Gust Speed 23 mph    
Visibility 10 miles    
Events      
Averages and records for this station are not official NWS values.
T = Trace of Precipitation, MM = Missing Value Source: NWS Daily Summary

Daily Weather History Graph

Daily Weather History Graph

Search for Another Location

Airport or City:

Trip Planner

Search our weather history database for the weather conditions in past years. The results will help you decide how hot, cold, wet, or windy it might be!

Date:

Astronomy

Feb. 28, 2012 Rise Set
Actual Time 6:33 AM EST 5:46 PM EST
Civil Twilight 6:05 AM EST 6:14 PM EST
Nautical Twilight 5:34 AM EST 6:45 PM EST
Astronomical Twilight 5:02 AM EST 7:17 PM EST
Moon 9:36 AM EST (2/28) No Moon Set
Length of Visible Light 12h 08m
Length of Day
11h 12m
Waxing Crescent, 37% of the Moon is Illuminated
Feb 28
Waxing Crescent
Feb 29
First Quarter
Mar 8
Full
Mar 14
Last Quarter
Mar 22
New

Hourly Weather History & Observations

Time (EST) Temp. Windchill Dew Point Humidity Pressure Visibility Wind Dir Wind Speed Gust Speed Precip Events Conditions
12:53 AM 46.0 °F 40.2 °F 24.1 °F 42% 30.20 in 10.0 mi NW 12.7 mph 19.6 mph N/A   Clear
1:53 AM 44.1 °F 37.1 °F 19.9 °F 38% 30.23 in 10.0 mi WNW 15.0 mph 21.9 mph N/A   Clear
2:53 AM 39.9 °F 33.9 °F 17.1 °F 40% 30.29 in 10.0 mi NW 9.2 mph - N/A   Clear
3:53 AM 39.9 °F 34.5 °F 19.0 °F 43% 30.31 in 10.0 mi NW 8.1 mph - N/A   Overcast
4:53 AM 39.9 °F 33.9 °F 19.9 °F 45% 30.33 in 10.0 mi NW 9.2 mph 17.3 mph N/A   Overcast
5:53 AM 39.0 °F 32.8 °F 19.9 °F 46% 30.35 in 10.0 mi WNW 9.2 mph - N/A   Overcast
6:53 AM 39.0 °F 32.3 °F 19.9 °F 46% 30.36 in 10.0 mi NW 10.4 mph - N/A   Partly Cloudy
7:53 AM 39.9 °F 34.5 °F 19.9 °F 45% 30.39 in 10.0 mi NW 8.1 mph - N/A   Scattered Clouds
8:53 AM 42.1 °F 36.6 °F 19.9 °F 41% 30.40 in 10.0 mi North 9.2 mph 20.7 mph N/A   Clear
9:53 AM 42.1 °F 35.7 °F 18.0 °F 38% 30.41 in 10.0 mi NNW 11.5 mph 23.0 mph N/A   Clear
10:53 AM 43.0 °F 37.2 °F 18.0 °F 37% 30.41 in 10.0 mi NW 10.4 mph - N/A   Clear
11:53 AM 44.1 °F 38.1 °F 17.1 °F 34% 30.39 in 10.0 mi NNW 11.5 mph 20.7 mph N/A   Clear
12:53 PM 46.9 °F - 19.0 °F 33% 30.39 in 10.0 mi NW 10.4 mph - N/A   Clear
1:53 PM 48.0 °F - 19.0 °F 32% 30.37 in 10.0 mi North 8.1 mph - N/A   Clear
3:53 PM 48.9 °F - 19.0 °F 31% 30.37 in 10.0 mi Variable 5.8 mph - N/A   Clear
4:53 PM 46.9 °F - 19.0 °F 33% 30.37 in 10.0 mi NNW 4.6 mph - N/A   Clear
5:53 PM 45.0 °F 43.5 °F 19.0 °F 36% 30.38 in 10.0 mi Variable 3.5 mph - N/A   Clear
6:53 PM 43.0 °F 41.3 °F 19.0 °F 38% 30.40 in 10.0 mi NNW 3.5 mph - N/A   Clear
7:53 PM 41.0 °F - 19.0 °F 41% 30.41 in 10.0 mi Calm Calm - N/A   Clear
8:53 PM 39.0 °F - 19.0 °F 45% 30.41 in 10.0 mi Calm Calm - N/A   Partly Cloudy
9:53 PM 37.9 °F - 19.9 °F 48% 30.41 in 10.0 mi Calm Calm - N/A   Clear
10:53 PM 36.0 °F - 19.9 °F 52% 30.40 in 10.0 mi Calm Calm - N/A   Clear
11:53 PM 35.1 °F - 21.0 °F 57% 30.40 in 10.0 mi Calm Calm - N/A   Scattered Clouds